User: anonymous   Login
Location: Unspecified
(0.0000°N, 0.0000°E)
Time: 05:15:08
(UTC+00:00)
Language:

SBSS (USA 216) - Orbit

View from above orbital plane
View from above orbital plane
View from above satellite
View from above satellite

Ground track
Ground track

The orbit data is extracted from the following two-line orbital elements,

1 37168U 10048A   18133.10039198 0.00000090  00000-0  11509-4 0    07
2 37168  97.8464 356.9193 0001000  88.1350 271.8648 14.81458290    05
Epoch (UTC): 13 May 2018 02:24:33
Eccentricity: 0.0001000
inclination: 97.8464°
perigee height: 624 km
apogee height: 625 km
right ascension of ascending node: 356.9193°
argument of perigee: 88.1350°
revolutions per day: 14.81458290
mean anomaly at epoch: 271.8648°
orbit number at epoch: 0

The dashed part of the orbit path shows where the satellite is in the earth's shadow,  

DLR